Theta_e
309 309 309 309 306 306 305 305 305 305 305 306 306 306 306 305 306 307 307 307 307 307 307 307 307 306 306 306 306 306 305 304 302 301 301 306 304 309 303 303 300 302 299
309 309 309 309 308 306 307 305 305 305 305 306 306 306 306 306 307 307 307 307 307 307 308 308 308 307 307 307 307 307 306 306 305 303 304 303 301 302 301 302 300 300 299
310 309 309 309 309 308 307 306 304 305 305 306 306 306 306 307 307 307 307 307 308 308 308 308 308 307 307 307 306 306 306 306 306 305 305 305 305 304 304 304 303 302 301
310 309 310 310 309 309 307 307 305 304 304 306 306 306 307 307 307 307 308 308 308 308 307 307 306 305 303 302 301 301 302 303 304 305 305 305 304 304 303 303 301 302 303
310 310 310 310 310 309 308 307 306 307 307 307 307 308 307 308 308 308 308 308 306 305 304 302 300 298 297 295 295 295 296 300 302 303 303 304 304 304 303 303 303 301 302
310 310 310 310 310 310 309 308 306 308 308 308 308 308 308 308 309 308 307 306 304 302 300 298 297 295 294 293 292 292 292 292 295 298 299 298 298 299 298 298 299 300 300
311 310 310 310 310 310 310 309 307 308 308 308 308 308 308 309 308 307 306 304 301 299 298 296 294 293 292 291 291 291 290 291 291 291 292 293 294 293 293 293 294 295 297
311 311 310 310 310 310 310 309 308 307 308 308 308 308 308 309 307 306 304 301 298 297 295 294 292 291 291 290 290 290 290 290 290 290 290 290 290 290 290 290 289 290 291
310 311 311 310 310 310 311 310 309 308 308 309 308 308 308 307 305 303 300 298 296 295 293 292 291 290 290 290 289 289 288 288 289 289 289 290 289 289 289 288 288 288 289
310 310 310 310 310 310 311 310 309 308 308 308 308 308 307 305 303 300 297 297 295 293 292 291 290 290 289 289 288 288 287 287 288 288 288 288 287 287 287 287 287 287 288
311 310 309 309 309 310 310 309 309 308 308 308 307 306 304 302 299 297 296 294 292 291 291 290 290 289 288 288 287 287 287 286 286 286 285 285 285 285 285 284 285 285 285
311 310 309 309 309 310 310 309 309 308 308 307 305 303 302 298 297 295 294 292 291 290 290 290 289 288 288 287 287 287 286 286 285 285 285 283 282 282 283 283 283 283 283
310 309 308 308 309 310 309 309 308 307 306 303 303 301 298 296 295 294 292 291 290 290 290 289 288 288 288 287 287 287 286 286 285 285 283 282 282 282 282 282 283 285 286
308 307 307 308 308 309 308 307 306 304 303 302 300 298 296 295 294 292 291 290 290 290 289 288 288 288 288 288 287 287 286 285 285 284 283 282 282 282 282 282 285 284 283
307 307 307 307 307 306 305 304 304 303 300 299 297 296 295 294 292 291 290 290 290 289 288 288 288 288 288 287 287 286 286 285 285 284 283 282 282 282 282 282 282 281 281
306 306 306 305 303 303 303 302 301 299 297 296 295 294 293 291 290 290 290 289 289 288 288 288 288 288 288 287 286 286 285 285 284 284 283 282 282 281 282 282 281 281 281
304 303 303 303 302 302 300 299 298 297 296 294 293 292 291 290 290 289 289 289 288 288 288 288 288 287 287 286 286 286 285 285 284 284 283 282 282 281 282 282 281 281 281
302 302 302 301 300 299 298 297 296 295 294 292 291 291 290 290 289 289 289 288 288 288 287 287 287 286 286 286 286 285 285 284 284 284 283 282 281 281 281 281 281 281 281
302 301 299 298 297 297 296 295 294 293 291 291 290 289 288 288 288 287 286 286 286 286 286 284 283 283 285 285 285 284 284 284 284 283 282 282 281 281 281 281 281 282 281
300 298 297 297 296 295 294 293 292 291 290 289 288 287 287 286 284 284 285 285 285 284 283 283 283 283 282 281 282 283 282 282 282 282 281 281 281 280 281 281 282 281 281
298 297 297 296 293 292 291 291 290 289 288 287 286 284 283 283 284 284 285 284 283 282 282 281 281 280 280 280 280 280 281 281 281 281 280 280 281 281 281 281 281 279 279
296 296 295 294 292 291 290 290 288 286 284 283 283 283 284 284 284 283 282 281 281 281 281 281 280 279 279 280 280 280 280 280 280 280 280 280 280 280 280 280 279 279 279
294 293 293 292 291 290 288 286 284 283 283 284 284 284 284 283 282 281 281 280 280 280 279 279 279 279 279 280 280 279 279 279 280 280 279 279 279 279 279 279 278 278 280
292 291 291 290 288 286 283 283 283 283 283 282 282 281 281 280 280 280 279 279 278 278 278 278 278 279 279 278 278 278 279 278 278 279 279 278 278 278 278 278 278 279 280
291 289 288 286 284 283 283 283 283 282 281 281 280 279 279 278 278 278 277 277 277 277 278 278 279 278 277 277 278 278 278 277 277 277 277 277 277 277 277 278 279 278 278
288 287 284 283 283 283 283 283 282 281 280 279 279 278 278 278 277 277 277 277 277 277 277 276 276 276 276 276 276 276 276 276 276 276 276 276 276 276 277 277 277 277 277
Wind_Speed
16 16 13 8 8 7 7 7 5 4 5 3 4 6 9 10 10 10 9 10 11 11 14 17 20 21 23 26 27 28 28 27 24 19 9 8 11 12 18 10 14 13 13
24 21 18 14 10 8 7 7 8 6 4 4 4 3 6 7 6 7 10 12 11 13 15 19 21 22 21 23 25 27 27 26 24 22 20 14 9 6 17 16 16 16 15
29 26 23 19 15 12 10 7 8 7 5 6 4 2 3 5 3 7 10 13 15 15 17 19 20 21 22 24 24 24 25 23 22 17 10 8 7 28 12 23 18 20 17
33 29 26 23 20 14 13 10 8 9 7 7 4 3 3 0 5 8 10 13 16 17 18 19 19 20 21 22 23 22 23 22 21 17 12 11 14 18 20 19 29 26 20
38 35 32 27 21 17 16 13 11 11 10 10 8 7 4 4 6 8 10 15 16 16 17 18 20 22 23 23 22 21 19 18 16 15 15 15 16 14 17 28 27 30 23
42 38 34 31 25 21 19 17 16 15 14 12 10 8 7 8 9 9 12 14 15 15 17 18 20 21 22 24 24 21 18 17 16 14 15 14 13 16 16 22 29 26 29
43 43 42 38 33 29 25 22 20 20 17 15 13 12 12 12 11 12 13 14 15 16 18 21 23 24 24 22 21 20 18 17 17 17 16 16 16 16 18 19 25 30 33
40 44 43 41 38 33 28 25 22 21 20 18 16 15 14 12 12 12 13 14 15 17 19 22 24 25 24 23 20 19 17 16 16 17 18 18 18 18 18 20 23 30 28
28 39 43 42 42 37 31 26 23 23 22 20 18 16 14 11 11 12 14 14 16 18 20 23 24 24 22 20 20 19 18 17 18 18 16 17 17 19 20 21 21 21 23
19 28 38 41 41 38 32 28 26 23 21 18 17 14 11 10 12 13 14 15 17 19 22 24 25 23 21 20 20 20 18 16 16 17 19 20 22 24 24 24 25 23 24
17 21 28 34 38 38 34 30 26 22 21 18 16 12 10 12 13 14 15 17 19 21 23 26 25 23 21 20 21 21 19 19 19 21 24 25 26 27 27 27 26 26 27
11 16 22 28 32 36 34 30 24 21 19 16 12 10 11 13 14 15 17 19 20 22 25 27 24 21 20 21 23 24 22 21 22 25 26 27 26 26 26 26 28 27 26
9 13 17 22 28 33 30 25 22 20 16 11 8 10 12 13 15 17 18 20 21 23 27 26 22 21 21 22 22 25 24 23 23 26 27 27 27 28 27 27 26 23 23
7 11 16 21 27 28 25 24 20 14 9 7 9 11 12 14 16 17 19 19 22 26 27 25 23 22 22 22 23 27 29 23 25 27 26 26 27 28 28 26 21 27 31
10 13 18 23 25 26 23 18 12 7 5 8 10 11 13 15 17 16 18 22 25 25 26 23 22 22 23 24 24 28 26 24 26 27 27 27 27 26 26 24 28 29 29
14 17 23 28 26 21 17 11 5 2 5 9 10 13 16 15 14 19 22 23 23 25 24 25 25 25 25 25 23 29 28 26 28 28 27 27 28 28 25 25 27 26 25
17 22 27 24 20 15 9 4 1 4 7 9 12 12 11 14 18 19 21 23 25 27 26 24 23 22 24 22 31 26 27 29 29 28 30 29 29 28 26 27 27 28 27
21 26 24 20 14 9 5 1 3 6 8 10 12 13 15 18 20 22 25 26 26 26 24 22 23 25 27 30 28 23 27 29 28 30 31 30 31 29 26 27 29 29 31
24 21 18 15 11 6 3 3 5 6 9 12 14 17 18 21 23 25 27 27 26 25 27 30 33 32 30 28 30 31 28 26 29 32 32 31 31 31 29 26 28 30 33
23 20 15 10 6 4 2 4 7 11 14 16 18 21 24 26 26 25 24 25 28 30 32 34 29 28 29 28 26 25 27 29 29 31 30 31 31 29 26 26 27 29 33
18 14 11 7 6 3 4 8 11 15 17 20 23 24 24 23 23 24 26 28 30 32 32 31 31 30 29 28 27 26 26 27 29 31 32 32 29 28 26 24 25 30 33
15 10 7 6 4 5 9 13 16 18 20 21 22 22 23 24 25 27 29 30 31 31 32 33 35 34 30 27 26 25 25 27 30 32 31 29 27 25 26 31 32 32 30
12 8 4 4 5 9 13 16 18 19 20 21 22 23 24 26 27 29 31 33 31 31 34 34 33 33 30 27 27 30 29 27 26 27 29 30 31 32 31 29 28 28 23
9 5 3 5 9 12 15 16 17 18 20 22 25 27 29 31 32 32 33 32 33 33 32 31 32 32 25 30 35 30 30 29 30 29 29 30 31 30 27 26 26 21 15
6 3 5 8 10 11 13 15 17 20 23 26 28 30 32 33 34 33 31 30 28 23 26 27 28 30 37 33 29 29 29 31 32 34 35 34 31 27 25 22 16 15 19
4 5 8 9 10 12 14 16 20 24 27 29 30 31 31 32 32 32 32 27 24 22 21 26 29 26 25 27 28 29 30 29 28 28 27 26 24 24 24 21 26 24 25
Wind_Direction
221 214 207 202 204 193 179 177 169 164 167 148 136 98 72 62 66 50 36 27 24 15 7 3 1 2 1 360 359 359 1 5 6 2 17 248 284 277 341 324 350 344 351
217 215 212 211 213 205 192 188 187 194 188 202 170 113 71 74 68 29 11 6 358 353 349 349 349 348 351 350 350 350 350 352 357 4 358 350 340 278 329 328 339 346 348
219 217 215 217 212 208 205 198 194 192 192 183 179 117 78 104 39 4 2 359 349 341 341 343 343 343 342 342 341 342 340 339 341 344 354 346 314 329 304 320 327 333 340
225 224 221 219 217 211 201 203 198 193 187 180 198 166 168 175 4 354 351 343 337 334 335 335 335 335 335 335 337 335 333 332 332 330 313 299 297 312 313 307 319 319 324
227 225 224 225 220 209 208 203 197 182 178 180 184 201 225 302 323 319 322 324 323 323 327 329 331 334 336 337 335 333 333 330 331 334 328 314 312 311 316 312 320 316 320
226 228 230 225 220 212 210 209 204 190 191 197 210 232 267 287 287 286 303 314 318 322 326 331 336 338 337 338 339 339 331 325 317 314 319 332 336 318 319 310 309 311 308
227 226 225 223 219 214 211 210 208 202 208 215 225 244 261 270 266 285 306 314 317 323 331 338 341 343 344 342 339 336 335 330 324 320 319 316 316 319 317 319 312 310 309
228 227 228 226 221 217 215 213 210 209 219 229 238 249 257 255 268 295 312 318 324 332 338 340 340 341 340 339 339 338 338 327 326 329 326 324 322 322 324 325 327 322 312
234 229 228 228 222 217 216 217 213 215 223 237 241 244 242 255 287 309 318 323 328 333 336 338 339 339 338 336 336 336 334 327 325 327 327 327 324 321 319 320 322 322 313
248 238 232 229 222 218 215 214 216 223 229 234 232 230 244 275 300 313 318 321 324 332 335 336 337 337 336 336 339 343 341 336 331 330 327 322 318 315 313 314 313 309 301
262 250 236 229 223 214 212 213 215 219 223 219 220 234 265 293 309 318 321 326 331 334 334 334 335 335 336 339 342 348 338 334 328 324 325 322 319 316 313 310 306 302 297
272 248 236 228 218 209 209 210 210 213 209 212 225 257 291 308 317 320 324 327 330 331 332 334 331 330 332 334 339 340 335 325 323 324 325 322 317 314 311 307 303 302 301
263 239 227 219 209 201 200 200 198 196 201 214 258 294 306 312 315 316 323 325 325 326 330 330 323 322 327 329 327 332 328 319 321 321 321 321 321 318 315 312 311 307 300
239 222 205 199 192 189 186 181 178 184 205 255 288 299 305 311 315 323 324 319 320 321 327 329 318 316 318 316 316 325 323 308 314 316 316 318 319 317 314 312 300 302 301
206 194 183 178 171 165 162 163 171 194 253 288 301 311 317 322 326 321 314 314 316 322 325 318 313 307 305 307 308 316 307 298 308 312 314 315 315 314 311 307 306 306 304
186 175 167 158 153 151 152 158 171 264 298 308 317 323 328 329 317 312 313 316 317 317 311 312 306 304 298 301 309 310 294 293 305 308 313 313 313 315 312 309 304 301 306
167 160 150 144 141 143 144 152 244 308 319 329 330 330 326 311 312 310 306 302 302 304 304 303 300 297 304 297 307 300 290 298 299 305 311 312 311 311 308 304 304 300 302
152 145 143 143 141 140 145 115 345 333 328 323 322 317 311 308 307 305 305 307 308 308 306 300 299 304 303 303 301 297 294 294 290 297 305 308 307 307 309 307 305 302 304
144 140 138 135 132 119 68 358 341 332 328 327 325 323 321 318 315 313 314 314 313 311 313 319 318 312 306 301 302 302 299 291 291 299 304 305 307 308 306 302 300 301 305
140 140 135 125 119 98 32 336 338 334 332 332 331 325 322 320 321 321 320 318 317 319 321 320 316 312 309 306 304 303 306 303 304 302 304 307 307 309 310 305 300 302 310
131 131 132 125 104 74 351 336 340 335 336 329 324 327 329 328 326 323 322 323 324 322 321 319 319 321 321 316 313 312 312 310 306 304 305 306 307 309 306 300 303 307 309
132 131 126 101 63 360 341 339 337 337 332 334 336 334 332 330 328 327 327 325 323 321 321 322 323 326 327 324 322 319 314 309 306 305 306 307 309 307 306 304 305 303 299
129 121 92 49 8 345 342 343 345 343 342 338 337 335 331 328 328 327 326 326 327 327 326 327 326 327 329 327 322 320 319 315 310 309 310 306 305 307 304 300 297 299 294
125 106 54 16 359 352 348 349 346 342 339 339 337 334 333 333 331 330 332 333 334 331 327 326 325 327 328 320 325 324 320 317 316 316 313 310 309 306 303 300 300 295 286
122 81 21 8 0 354 350 347 344 342 342 342 340 337 335 334 334 335 335 333 331 331 326 324 321 319 320 322 319 316 317 315 311 308 306 310 314 312 311 310 299 308 307
91 34 16 5 1 352 346 344 344 345 343 342 341 340 339 338 338 336 334 338 337 333 325 314 315 321 318 319 320 319 318 318 319 316 317 319 319 318 317 313 309 309 308